When you browse on this site, cookies collect data to enhance your experience and personalize the content and advertising you see.
Visit our Privacy Policy to learn more. By continuing to use the site, you agree to this use of cookies and data.
  • In Switzerland
  • List of Countries
  • For 7 days
  • Water Temperature
  • Weather Map
  • Weather Widgets
  • user-avatar
    Login

    Hourly Weather Plavni

    Today, 25 August, Sunday

    Time Temperature Precipitation Wind Pressure Humidity
    00:00 +26°C° 0 mm 2 mps 763 mmHg 53%
    01:00 +25°C° 0 mm 3 mps 763 mmHg 54%
    02:00 +25°C° 0 mm 3 mps 763 mmHg 55%
    03:00 +25°C° 0 mm 3 mps 763 mmHg 58%
    04:00 +24°C° 0 mm 3 mps 763 mmHg 61%
    05:00 +24°C° 0 mm 3 mps 763 mmHg 64%
    06:00 +26°C° 0 mm 3 mps 763 mmHg 58%
    07:00 +28°C° 0 mm 4 mps 763 mmHg 52%
    08:00 +29°C° 0 mm 5 mps 763 mmHg 46%
    09:00 +32°C° 0 mm 5 mps 763 mmHg 41%
    10:00 +34°C° 0 mm 6 mps 763 mmHg 36%
    11:00 +36°C° 0 mm 6 mps 763 mmHg 30%
    12:00 +38°C° 0 mm 6 mps 763 mmHg 29%
    13:00 +38°C° 0 mm 7 mps 763 mmHg 29%
    14:00 +38°C° 0 mm 7 mps 763 mmHg 28%
    15:00 +38°C° 0 mm 6 mps 762 mmHg 29%
    16:00 +36°C° 0 mm 6 mps 762 mmHg 30%
    17:00 +35°C° 0 mm 6 mps 762 mmHg 31%
    18:00 +33°C° 0 mm 5 mps 762 mmHg 36%
    19:00 +30°C° 0 mm 4 mps 762 mmHg 41%
    20:00 +28°C° 0 mm 3 mps 763 mmHg 46%
    21:00 +27°C° 0 mm 3 mps 763 mmHg 48%
    22:00 +26°C° 0 mm 2 mps 763 mmHg 49%
    23:00 +26°C° 0 mm 2 mps 763 mmHg 51%

    Tomorrow, 26 August, Monday

    Time Temperature Precipitation Wind Pressure Humidity
    00:00 +25°C° 0 mm 2 mps 763 mmHg 52%
    01:00 +25°C° 0 mm 3 mps 763 mmHg 53%
    02:00 +25°C° 0 mm 3 mps 763 mmHg 53%
    03:00 +24°C° 0 mm 3 mps 763 mmHg 55%
    04:00 +22°C° 0 mm 3 mps 763 mmHg 57%
    05:00 +22°C° 0 mm 3 mps 763 mmHg 58%
    06:00 +25°C° 0 mm 3 mps 764 mmHg 52%
    07:00 +27°C° 0 mm 3 mps 764 mmHg 46%
    08:00 +29°C° 0 mm 4 mps 764 mmHg 40%
    09:00 +32°C° 0 mm 4 mps 764 mmHg 35%
    10:00 +33°C° 0 mm 4 mps 764 mmHg 31%
    11:00 +35°C° 0 mm 5 mps 764 mmHg 26%
    12:00 +36°C° 0 mm 5 mps 764 mmHg 24%
    13:00 +36°C° 0 mm 5 mps 763 mmHg 23%
    14:00 +37°C° 0 mm 5 mps 763 mmHg 21%
    15:00 +36°C° 0 mm 5 mps 763 mmHg 22%
    16:00 +35°C° 0 mm 6 mps 762 mmHg 22%
    17:00 +34°C° 0 mm 6 mps 762 mmHg 22%
    18:00 +32°C° 0 mm 5 mps 762 mmHg 27%
    19:00 +28°C° 0 mm 4 mps 762 mmHg 31%
    20:00 +25°C° 0 mm 3 mps 763 mmHg 36%
    21:00 +24°C° 0 mm 2 mps 763 mmHg 39%
    22:00 +24°C° 0 mm 2 mps 763 mmHg 43%
    23:00 +23°C° 0 mm 1 mps 763 mmHg 46%

    Day after tomorrow, 27 August, Tuesday

    Time Temperature Precipitation Wind Pressure Humidity
    00:00 +23°C° 0 mm 2 mps 763 mmHg 46%
    01:00 +21°C° 0 mm 2 mps 763 mmHg 45%
    02:00 +21°C° 0 mm 2 mps 763 mmHg 45%
    03:00 +21°C° 0 mm 2 mps 763 mmHg 47%
    04:00 +20°C° 0 mm 2 mps 763 mmHg 49%
    05:00 +20°C° 0 mm 3 mps 763 mmHg 52%
    06:00 +22°C° 0 mm 3 mps 763 mmHg 50%
    07:00 +25°C° 0 mm 3 mps 763 mmHg 48%
    08:00 +27°C° 0 mm 3 mps 763 mmHg 47%
    09:00 +29°C° 0 mm 4 mps 763 mmHg 41%
    10:00 +32°C° 0 mm 4 mps 763 mmHg 36%
    11:00 +34°C° 0 mm 4 mps 763 mmHg 30%
    12:00 +35°C° 0 mm 4 mps 763 mmHg 28%
    13:00 +35°C° 0 mm 4 mps 763 mmHg 26%
    14:00 +36°C° 0 mm 4 mps 762 mmHg 24%
    15:00 +35°C° 0 mm 5 mps 762 mmHg 26%
    16:00 +35°C° 0 mm 5 mps 762 mmHg 28%
    17:00 +34°C° 0 mm 6 mps 762 mmHg 30%
    18:00 +30°C° 0 mm 5 mps 762 mmHg 37%
    19:00 +28°C° 0 mm 4 mps 762 mmHg 43%
    20:00 +25°C° 0 mm 2 mps 762 mmHg 50%
    21:00 +24°C° 0 mm 2 mps 762 mmHg 53%
    22:00 +23°C° 0 mm 1 mps 763 mmHg 55%
    23:00 +21°C° 0 mm 0 mps 763 mmHg 58%

    28 August, Wednesday

    Time Temperature Precipitation Wind Pressure Humidity
    00:00 +22°C° 0 mm 1 mps 763 mmHg 57%
    01:00 +22°C° 0 mm 1 mps 763 mmHg 56%
    02:00 +21°C° 0 mm 2 mps 763 mmHg 55%
    03:00 +21°C° 0 mm 2 mps 763 mmHg 55%
    04:00 +20°C° 0 mm 2 mps 763 mmHg 55%
    05:00 +20°C° 0 mm 2 mps 763 mmHg 55%
    06:00 +23°C° 0 mm 2 mps 763 mmHg 48%
    07:00 +25°C° 0 mm 3 mps 763 mmHg 40%
    08:00 +27°C° 0 mm 3 mps 763 mmHg 33%
    09:00 +29°C° 0 mm 4 mps 763 mmHg 29%
    10:00 +32°C° 0 mm 4 mps 763 mmHg 25%
    11:00 +33°C° 0 mm 5 mps 763 mmHg 22%
    12:00 +34°C° 0 mm 5 mps 763 mmHg 21%
    13:00 +34°C° 0 mm 5 mps 762 mmHg 20%
    14:00 +35°C° 0 mm 5 mps 762 mmHg 19%
    15:00 +34°C° 0 mm 5 mps 761 mmHg 21%
    16:00 +34°C° 0 mm 5 mps 761 mmHg 23%
    17:00 +33°C° 0 mm 5 mps 761 mmHg 24%
    18:00 +29°C° 0 mm 4 mps 761 mmHg 31%
    19:00 +27°C° 0 mm 3 mps 761 mmHg 38%
    20:00 +24°C° 0 mm 3 mps 761 mmHg 45%
    21:00 +23°C° 0 mm 2 mps 761 mmHg 47%
    22:00 +22°C° 0 mm 1 mps 761 mmHg 49%
    23:00 +20°C° 0 mm 0 mps 762 mmHg 51%

    29 August, Thursday

    Time Temperature Precipitation Wind Pressure Humidity
    00:00 +21°C° 0 mm 1 mps 761 mmHg 52%
    01:00 +20°C° 0 mm 2 mps 761 mmHg 52%
    02:00 +20°C° 0 mm 2 mps 761 mmHg 53%
    03:00 +20°C° 0 mm 2 mps 761 mmHg 55%
    04:00 +20°C° 0 mm 3 mps 761 mmHg 56%
    05:00 +19°C° 0 mm 3 mps 761 mmHg 57%
    06:00 +21°C° 0 mm 3 mps 761 mmHg 54%
    07:00 +24°C° 0 mm 3 mps 761 mmHg 50%
    08:00 +26°C° 0 mm 4 mps 761 mmHg 47%
    09:00 +28°C° 0 mm 4 mps 761 mmHg 41%
    10:00 +30°C° 0 mm 4 mps 761 mmHg 36%
    11:00 +32°C° 0 mm 5 mps 761 mmHg 31%
    12:00 +33°C° 0 mm 5 mps 761 mmHg 30%
    13:00 +33°C° 0 mm 5 mps 760 mmHg 28%
    14:00 +33°C° 0 mm 5 mps 760 mmHg 27%
    15:00 +32°C° 0 mm 6 mps 760 mmHg 31%
    16:00 +32°C° 0 mm 6 mps 760 mmHg 34%
    17:00 +30°C° 0 mm 6 mps 760 mmHg 38%
    18:00 +27°C° 0 mm 6 mps 760 mmHg 46%
    19:00 +25°C° 0 mm 5 mps 760 mmHg 53%
    20:00 +22°C° 0 mm 4 mps 761 mmHg 60%
    21:00 +21°C° 0 mm 4 mps 761 mmHg 64%
    22:00 +20°C° 0 mm 3 mps 761 mmHg 67%
    23:00 +19°C° 0 mm 3 mps 762 mmHg 71%

    30 August, Friday

    Time Temperature Precipitation Wind Pressure Humidity
    00:00 +19°C° 0 mm 3 mps 762 mmHg 71%
    01:00 +18°C° 0 mm 2 mps 762 mmHg 71%
    02:00 +18°C° 0 mm 2 mps 762 mmHg 71%
    03:00 +17°C° 0 mm 3 mps 762 mmHg 69%
    04:00 +17°C° 0 mm 3 mps 762 mmHg 67%
    05:00 +17°C° 0 mm 3 mps 762 mmHg 65%
    06:00 +18°C° 0 mm 4 mps 763 mmHg 58%
    07:00 +20°C° 0 mm 5 mps 763 mmHg 50%
    08:00 +21°C° 0 mm 5 mps 763 mmHg 42%
    09:00 +23°C° 0 mm 5 mps 763 mmHg 37%
    10:00 +25°C° 0 mm 5 mps 763 mmHg 31%
    11:00 +27°C° 0 mm 5 mps 764 mmHg 25%
    12:00 +28°C° 0 mm 5 mps 763 mmHg 24%
    13:00 +28°C° 0 mm 5 mps 763 mmHg 24%
    14:00 +29°C° 0 mm 5 mps 763 mmHg 24%
    15:00 +28°C° 0 mm 5 mps 763 mmHg 26%
    16:00 +27°C° 0 mm 6 mps 763 mmHg 29%
    17:00 +26°C° 0 mm 6 mps 762 mmHg 32%
    18:00 +22°C° 0 mm 5 mps 763 mmHg 39%
    19:00 +20°C° 0 mm 4 mps 763 mmHg 46%
    20:00 +18°C° 0 mm 3 mps 763 mmHg 53%
    21:00 +17°C° 0 mm 3 mps 763 mmHg 56%
    22:00 +16°C° 0 mm 2 mps 764 mmHg 59%
    23:00 +15°C° 0 mm 1 mps 764 mmHg 62%
    Show more